Showing default

HULIANWANG DIGUI-163, 68137

Orbit data source: Space-Track

HULIANWANG DIGUI-163, 68137 is a payload satellite owned by Zhongguo Xingwang (CN) in LEO that was launched on Thu, 12 Mar 2026 UTC via a CHANG ZHENG 8A launch vehicle from the Wenchang Satellite Launch Center (WSC). Payload-class satellites include a variety of spacecraft equipped with specific instruments for various scientific and technological missions. These include communications satellites like Starlink; space stations such as the ISS; scientific satellites like the Hubble; Earth observation satellites from companies like Planet Labs, Umbra, and HawkEye 360; GPS; miniature CubeSats for education and research; and military/defense satellites.

Loading next visibility...
Identifier
68137, 2026-047J
Orbit
LEO
Country
Flag of CNCN / PRC
Related business
Manufacturer
CAST?
Mission
Operational spacecraft
Bus & Motor
XINGWANG C, Unknown motor
Mass
~700 kg wet, ~700 kg dry
Launch date (UTC)
2026-03-12 (2 months ago)
Launch vehicle
CHANG ZHENG 8A
Launch site
Wenchang Satellite Launch Center (WSC)
Object type
Payload
Rocket body
Debris
Shape & HBR
Unknown shape, 1.1 m
Radar Cross Section
RCS unknown

Expand to show TLE details & history
Last TLE update: 22 hours ago

TLE from 22 hours ago
0 HULIANWANG DIGUI-163
1 68137U 26047J   26118.67673640 -.00000138  00000-0 -13750-4 0  9995
2 68137  50.0138 233.8812 0000710  16.4871 343.6032 13.44916986  6486
Epoch: 2026-04-28T16:14Z
TLE epoch observation values (Epoch: 2026-04-28T16:14:30.024Z)
Latitude
0.00003°
Longitude
133.6075°
Altitude
1,091.021 km
Speed
7.308 km/s
True Right ascension
15h 35m 31s
True Declination
0° 00' 00"
Sunlit
Object was in full shadow at epoch
Visualization orbit readout
Latitude
Unknown
Longitude
Unknown
Altitude
Unknown
Speed
Unknown
Apparent Right ascension
Unknown
Apparent Declination
Unknown
Sunlit
N/A
Visualization observer readout
Local Sidereal Time
21:31:32
Azimuth
Unknown
Elevation
Unknown
Doppler factor
Unknown
Orbital elements
Apogee altitude
1,092.258 km
Perigee altitude
1,091.197 km
Semi-major axis
7,469.865 km
Eccentricity
0.00007
Inclination
50.0138°
RAAN
233.8812°
Arg. of periapsis
16.4871°
True anomaly
343.6009°
Mean anomaly
343.6032°
Eccentric anomaly
343.60205°
Mean motion
3.36182 °/min
Orbital period
107.08 mins
BSTAR
-0.00001375
Loading maneuver chart data...
Computing Atmospheric mass density...
Loading historical data...
Loading historical data...
Loading historical data...
Loading historical data...
Loading historical data...
Loading historical data...
Loading historical data...

Documentation

Showing up to 5 results
|